FW7442 Weather Reports


time (UTC)temp
C
wind
direction
speed
KPH
gust
KPH
rain 1hr
cm
rain 24hr
cm
rain mn
cm
humidity
%
barometer
mb
20260505040101 18 172 3.2 9.7 0.00 0.00 0.00 47 1015.4
20260505034554 18 209 0.0 12.9 0.00 0.00 0.00 47 1015.4
20260505033100 18 0 1.6 6.4 0.00 0.00 0.00 46 1015.6
20260505031556 18 252 1.6 8.0 0.00 0.00 0.00 46 1015.6
20260505030058 18 324 0.0 3.2 0.00 0.00 0.00 48 1015.7
20260505024550 19 310 4.8 12.9 0.00 0.00 0.00 44 1015.6
20260505023054 19 350 4.8 11.3 0.00 0.00 0.00 44 1015.7
20260505021553 19 190 1.6 9.7 0.00 0.00 0.00 45 1015.4
20260505020051 18 167 0.0 6.4 0.00 0.00 0.00 47 1015.4
20260505014553 18 150 0.0 12.9 0.00 0.00 0.00 46 1015.2
20260505013051 18 0 0.0 4.8 0.00 0.00 0.00 45 1015.2
20260505011548 19 115 0.0 4.8 0.00 0.00 0.00 43 1015.1
20260505010057 20 0 0.0 4.8 0.00 0.00 0.00 41 1015.0
20260505004552 20 0 0.0 9.7 0.00 0.00 0.00 40 1014.9
20260505003048 20 169 4.8 12.9 0.00 0.00 0.00 39 1014.7
20260505001553 20 182 6.4 17.7 0.00 0.00 0.00 38 1014.4
20260505000106 21 0 1.6 14.5 0.00 0.00 0.00 38 1014.3
20260504234604 21 74 1.6 12.9 0.00 0.00 0.00 38 1014.2
20260504233048 21 173 6.4 20.9 0.00 0.00 0.00 36 1014.2
20260504231550 22 186 3.2 16.1 0.00 0.00 0.00 35 1014.2
20260504230048 22 159 1.6 22.5 0.00 0.00 0.00 36 1014.1
20260504224553 22 175 6.4 17.7 0.00 0.00 0.00 36 1014.1
20260504223053 22 186 6.4 20.9 0.00 0.00 0.00 36 1014.1
20260504221549 23 167 6.4 20.9 0.00 0.00 0.00 36 1014.1
20260504220056 23 203 8.0 17.7 0.00 0.00 0.00 35 1014.1
20260504214550 23 175 8.0 16.1 0.00 0.00 0.00 35 1014.1
20260504213108 23 163 6.4 17.7 0.00 0.00 0.00 33 1014.1
20260504211551 23 193 4.8 17.7 0.00 0.00 0.00 33 1014.1
20260504210052 24 142 8.0 16.1 0.00 0.00 0.00 33 1014.2
20260504204600 24 136 8.0 14.5 0.00 0.00 0.00 33 1014.2
20260504203049 24 211 6.4 16.1 0.00 0.00 0.00 33 1014.4
20260504201551 24 180 6.4 20.9 0.00 0.00 0.00 34 1014.4
20260504200049 24 178 8.0 17.7 0.00 0.00 0.00 32 1014.7
20260504194551 24 161 6.4 14.5 0.00 0.00 0.00 34 1014.9
20260504193059 24 194 3.2 14.5 0.00 0.00 0.00 32 1015.0
20260504191553 23 182 8.0 16.1 0.00 0.00 0.00 34 1015.1
20260504190054 23 250 3.2 19.3 0.00 0.00 0.00 35 1015.3
20260504184549 23 180 1.6 12.9 0.00 0.00 0.00 35 1015.6
20260504183059 23 181 6.4 16.1 0.00 0.00 0.00 35 1015.7
20260504181555 24 63 3.2 19.3 0.00 0.00 0.00 36 1015.6
20260504180127 23 125 6.4 19.3 0.00 0.00 0.00 36 1015.9
20260504174548 24 319 3.2 14.5 0.00 0.00 0.00 33 1016.0
20260504173049 22 52 1.6 12.9 0.00 0.00 0.00 35 1016.0
20260504171551 23 310 3.2 11.3 0.00 0.00 0.00 33 1016.4
20260504100111 3 0 0.0 0.0 0.00 0.00 0.00 89 1017.2
20260504081604 5 0 0.0 0.0 0.00 0.00 0.00 87 1017.1
20260504060103 7 0 0.0 0.0 0.00 0.00 0.00 82 1017.4
20260504044549 7 0 0.0 3.2 0.00 0.00 0.00 80 1017.4
20260504043055 8 0 0.0 3.2 0.00 0.00 0.00 78 1017.6
20260504041545 8 0 0.0 0.0 0.00 0.00 0.00 78 1017.2